Address 0x93494cf5ac326a1c85477bbe8986d8352f3d0e03 10

 
Txn Hash Method
Block
From
To
Value [Txn Fee]
0x3a311d9597ad7e76ad12bf7b941df10299bbae6470c8042e0f23e18d68959e8bTransfer413495492022-11-26 11:24:5414 hrs 28 mins ago0x93494cf5ac326a1c85477bbe8986d8352f3d0e03OUT 0xff970a61a04b1ca14834a43f5de4533ebddb5cc80 ETH0.00001832
0x58c8b07bdd33250f8514911ed924f1985b522b39cc63210c677ff38c2807ec62Withdraw413489562022-11-26 11:22:0914 hrs 31 mins ago0x93494cf5ac326a1c85477bbe8986d8352f3d0e03OUT Multichain: anyUSDC Token0 ETH0.00001611
0x883d60ba2d5fcb4ef62d00fd50032cb1a7fe567e4bc2d7b14e76422af26e45aeWithdraw413451282022-11-26 11:03:4314 hrs 49 mins ago0x93494cf5ac326a1c85477bbe8986d8352f3d0e03OUT Multichain: anyUSDC Token0 ETH0.00001786
0x31a9b3f8fc19112e401b1a8b3f253c6fe60557357eaf530e24d7873c5d841820Safe Transfer Fr...407972962022-11-24 10:35:072 days 15 hrs ago0x93494cf5ac326a1c85477bbe8986d8352f3d0e03OUT0x579942f9cce581ee83fae0b51cb40fc01391a1690 ETH0.00005178
0x62e80e77f7d5b807dacc3b97da8fabed74b9e426bb9df6cb6d08361d2b70b5bcAdd Liquidity An...407971262022-11-24 10:34:152 days 15 hrs ago0x93494cf5ac326a1c85477bbe8986d8352f3d0e03OUT 0xe458018ad4283c90fb7f5460e24c4016f81b81750 ETH0.00008971
0x5f703f3efd141ee4e751dc4c2447706ea1db6be7a8f818b326e8f47162d138afApprove407969302022-11-24 10:33:112 days 15 hrs ago0x93494cf5ac326a1c85477bbe8986d8352f3d0e03OUT 0xda10009cbd5d07dd0cecc66161fc93d7c9000da10 ETH0.00001991
0x483a31e42376ffc754cae11a37518db4e152b82e8c744929f1aa63eeb83cbe83Approve407968122022-11-24 10:32:342 days 15 hrs ago0x93494cf5ac326a1c85477bbe8986d8352f3d0e03OUT 0xff970a61a04b1ca14834a43f5de4533ebddb5cc80 ETH0.0000213
0x00659458efdcb006ac2a4cd86c7fc43e3b7212454a4be3babeb2f00fabf81d5aBorrow407966352022-11-24 10:31:412 days 15 hrs ago0x93494cf5ac326a1c85477bbe8986d8352f3d0e03OUTAave: Pool V30 ETH0.00004458
0x0d51e870e9a2c875d8c770947b4e373e7fc6647ca683b0630d02e15655dd86f0Supply With Perm...407962372022-11-24 10:29:502 days 15 hrs ago0x93494cf5ac326a1c85477bbe8986d8352f3d0e03OUTAave: Pool V30 ETH0.00004564
0xcb2196c7644b99f1e651fd6ef202ba4d3bf92b5914fccf9f1d2dc384439a3cdeTransfer407961122022-11-24 10:29:102 days 15 hrs ago0xc2de474ea8a40cb2189712b1bdf87f6bc72fe37e IN 0x93494cf5ac326a1c85477bbe8986d8352f3d0e030.02 ETH0.00001255
0x3b849232bf9e9e3ec548a0db0b0cff8e00123b3f73f9b74cb97a3cf23637f1c2Set User E Mode325985952022-10-26 0:26:1232 days 1 hr ago0x93494cf5ac326a1c85477bbe8986d8352f3d0e03OUTAave: Pool V30 ETH0.00002735
0x3f67b3a1599f78c0ed5cc34b1114fd0a228f31962f55179ce15726090867901fAny Swap Out Nat...235153772022-09-08 6:17:1679 days 19 hrs ago0x93494cf5ac326a1c85477bbe8986d8352f3d0e03OUT Multichain: Router V60.6955 ETH0.0000205
0xd690564c6cc7e3a44ab552418ef8bc88453a9d64a53c2fa4175f1b9c25936c5eSwap235138262022-09-08 6:06:2879 days 19 hrs ago0x93494cf5ac326a1c85477bbe8986d8352f3d0e03OUT 0x1111111254fb6c44bac0bed2854e76f90643097d0 ETH0.00007588
0x3997d807ebe5b692e5df27463c94a1584892dbf5fc6c43fe2fed15376c626eb7Approve235136702022-09-08 6:05:2279 days 19 hrs ago0x93494cf5ac326a1c85477bbe8986d8352f3d0e03OUTStargate Finance: STG Token0 ETH0.00001453
0x8675ce3b0a741cf8884bfec8fc65e1381b570fb93c69b78c0ed00e393c990b5eTransfer231776662022-09-06 14:42:0081 days 11 hrs ago0x93494cf5ac326a1c85477bbe8986d8352f3d0e03OUT 0xff970a61a04b1ca14834a43f5de4533ebddb5cc80 ETH0.0005951
0x5b0b1785424d7834f258771aa35f4d0433086cc3f1a37697759df2755ca4b082Transfer213719822022-08-26 6:55:2292 days 18 hrs ago0x93494cf5ac326a1c85477bbe8986d8352f3d0e03OUT 0xff970a61a04b1ca14834a43f5de4533ebddb5cc80 ETH0.00006868235 ETH
0xca7379b3a53cc0265f8519c475111b880e87f8a235acfe360f2529aa2ff5953cTransfer174631222022-07-12 6:45:13137 days 19 hrs ago0x93494cf5ac326a1c85477bbe8986d8352f3d0e03OUT 0xff970a61a04b1ca14834a43f5de4533ebddb5cc80 ETH0.000128139369 ETH
0xdaa444dbf6214ffb4e9f28918ad16d04c8f55ac8d5a4f234618134c24a7e8fbcClaim All174626692022-07-12 6:35:41137 days 19 hrs ago0x93494cf5ac326a1c85477bbe8986d8352f3d0e03OUT 0x32126ae067ec31974180f79b6313ae986a375faa0 ETH0.000120461467 ETH
0xa82bb4ad0c2fc1d04d475d6d44a350bc0a16b112f38fa8a47436b7f09d304776Refresh Underlyi...174232572022-07-11 12:48:04138 days 13 hrs ago0x93494cf5ac326a1c85477bbe8986d8352f3d0e03OUT 0xd7758a32c9f0e8c99133086a176b97bbbbbea26c0 ETH0.000097102407 ETH
0x4b8ea1ed1105ee09d122783db984e47f31d8868c3e2d9f303f7402c922b64ddbRefresh Underlyi...174010632022-07-11 2:42:07138 days 23 hrs ago0x93494cf5ac326a1c85477bbe8986d8352f3d0e03OUT 0xd7758a32c9f0e8c99133086a176b97bbbbbea26c0 ETH0.000115603918 ETH
0x53f9a41916e0b05bb0e4fa0c8394df20fd468be2fcea964c4ff8b520d3e6dbffSwap Exact Token...172921202022-07-09 3:59:49140 days 21 hrs ago0x93494cf5ac326a1c85477bbe8986d8352f3d0e03OUT SushiSwap: Router0 ETH0.000216990792 ETH
0xa4efc76edf5172b900be7804fed7219bd881dec791f2139f01fc2c833cb83174Approve172920962022-07-09 3:59:02140 days 21 hrs ago0x93494cf5ac326a1c85477bbe8986d8352f3d0e03OUT0x326c33fd1113c1f29b35b4407f3d6312a85184310 ETH0.000152530584 ETH
0x0b66f74297196875743fa2bfb75ec3b064eefa0ea3d29832c75c2c575642bb61Any Swap Out Und...105785982022-04-26 12:45:12214 days 13 hrs ago0x93494cf5ac326a1c85477bbe8986d8352f3d0e03OUT Multichain: Router V40 ETH0.000241481976 ETH
0x1bbcad8a6a36cc34bc7652070f9edfb928235765189d03320aff7d2faa178e02Approve105785772022-04-26 12:45:12214 days 13 hrs ago0x93494cf5ac326a1c85477bbe8986d8352f3d0e03OUT 0xff970a61a04b1ca14834a43f5de4533ebddb5cc80 ETH0.000252358372 ETH
0xbf23841d463b3a301c7752543dd29090368c6d8ceda6da6b23bffd6ea0572c84Instant Redeem L...105771192022-04-26 12:09:57214 days 13 hrs ago0x93494cf5ac326a1c85477bbe8986d8352f3d0e03OUTStargate Finance: Router0 ETH0.000227266059 ETH
[ Download CSV Export 
Latest 6 internal transactions
Parent Txn Hash Block From To Value
0xd690564c6cc7e3a44ab552418ef8bc88453a9d64a53c2fa4175f1b9c25936c5e235138262022-09-08 6:06:2879 days 19 hrs ago 0x1111111254fb6c44bac0bed2854e76f90643097d0x93494cf5ac326a1c85477bbe8986d8352f3d0e030.288266041291329175 ETH
0x53f9a41916e0b05bb0e4fa0c8394df20fd468be2fcea964c4ff8b520d3e6dbff172921202022-07-09 3:59:49140 days 21 hrs ago SushiSwap: Router0x93494cf5ac326a1c85477bbe8986d8352f3d0e030.153659160466583546 ETH
0x1bbcad8a6a36cc34bc7652070f9edfb928235765189d03320aff7d2faa178e02105785772022-04-26 12:45:12214 days 13 hrs ago 0x93494cf5ac326a1c85477bbe8986d8352f3d0e03 0x1efb3f88bc88f03fd1804a5c53b7141bbef5ded80 ETH
0x71fdf38e0b22d77666fd2a962a5b118f5f49a9a15bcae14887f2f0110e1c230d96939772022-04-12 14:10:31228 days 11 hrs ago 0x93494cf5ac326a1c85477bbe8986d8352f3d0e03 0x6be9b5dcb835478e68a6c06a66eea1c0c16e74bb0 ETH
0xdbcecb63bb482f035c9c8b4d97a6feab723a4f8c06e2b45be55520eb5760e93596939552022-04-12 14:09:58228 days 11 hrs ago 0x93494cf5ac326a1c85477bbe8986d8352f3d0e03 0x1efb3f88bc88f03fd1804a5c53b7141bbef5ded80 ETH
0xe2c5e42ebf615d176435f372320f0f32603cc7d722605ea998ff47b74411a72680802692022-03-18 0:38:55254 days 1 hr ago 0x93494cf5ac326a1c85477bbe8986d8352f3d0e03 0x1efb3f88bc88f03fd1804a5c53b7141bbef5ded80 ETH
[ Download CSV Export 
Loading

Contract Name:
0 ETH

Compiler Version
0

Optimization Enabled:
0 ETH

Other Settings:
-NA-
Block Transaction Gas Used Reward
Age Block Fee Address BC Fee Address Voting Power Jailed Incoming
Block Uncle Number Difficulty Gas Used Reward
Loading
Make sure to use the "Vote Down" button for any spammy posts, and the "Vote Up" for interesting conversations.